Wind_Speed
19 20 20 21 21 22 22 23 23 24 24 23 23 24 24 24 24 24 25 25 26 26 26 26 26 25 25 24 23 23 22 22 22 22 22 23 24 25 26 26 27 28 28 29 30 30 31 31 31 32 33 33 33 34 34 34 34 34 35 34 34 34 34 33 33 33 32 32 31
18 19 19 20 21 21 22 22 22 22 22 22 22 22 22 23 23 24 24 25 25 25 25 25 24 24 23 22 22 21 21 21 21 22 22 23 24 25 26 27 27 28 29 29 30 31 31 32 32 32 33 33 34 34 34 34 34 35 35 35 35 35 34 34 33 33 33 32 32
18 18 19 20 20 21 21 21 21 21 20 20 20 21 21 22 23 23 24 24 24 24 24 23 23 22 21 20 20 20 20 20 21 22 23 24 25 26 26 27 28 28 29 30 30 31 31 32 32 33 33 34 34 34 34 35 35 35 35 35 35 35 35 34 33 34 33 32 32
17 18 19 19 20 20 20 20 20 19 19 19 20 20 21 21 22 23 23 23 23 23 22 22 21 20 19 19 19 19 19 20 21 22 23 24 25 26 27 28 28 29 30 30 31 31 32 32 33 33 33 34 34 34 35 35 35 36 35 36 36 35 35 34 34 34 34 33 32
17 18 18 19 19 19 19 19 18 18 18 19 19 20 21 21 22 22 23 23 23 22 21 20 19 19 18 18 18 19 20 21 22 23 24 25 26 27 28 28 29 30 30 31 32 32 32 33 34 34 34 34 35 35 35 35 36 36 36 36 36 36 36 35 34 34 34 34 33
17 18 18 18 18 19 18 18 18 18 18 19 19 20 21 21 22 22 23 22 22 21 20 19 18 18 17 18 18 19 20 22 23 24 25 26 27 28 28 29 30 31 31 32 32 33 33 34 34 35 35 35 35 36 36 36 36 37 37 37 37 37 36 36 35 35 35 34 34
17 17 17 17 18 18 18 18 18 18 18 19 19 20 20 21 22 22 22 22 21 20 19 18 17 17 18 18 19 20 22 23 24 25 26 27 28 29 29 30 31 31 32 33 33 34 34 34 35 35 36 36 36 36 36 36 37 37 37 37 38 37 37 36 36 35 35 34 34
16 16 16 17 17 17 17 18 18 18 19 19 19 20 20 21 22 22 21 21 20 19 18 17 17 18 19 19 21 22 23 24 25 26 27 28 29 29 30 31 32 32 32 33 34 34 35 35 35 35 36 36 37 37 37 37 37 38 38 38 38 38 37 36 36 36 35 34 34
16 16 16 16 17 17 18 18 18 19 19 19 20 20 21 21 21 21 21 20 19 18 17 17 18 19 19 20 22 23 24 25 26 27 28 28 29 30 31 31 32 33 33 33 34 34 35 35 35 36 36 36 37 37 38 38 38 38 38 38 38 38 38 36 36 36 36 35 35
15 15 16 16 17 17 18 18 19 19 20 20 20 21 21 21 21 20 20 19 18 18 18 18 19 20 21 22 23 24 25 26 27 27 28 29 30 30 31 32 32 33 33 34 34 35 35 35 36 36 36 36 37 37 38 38 38 38 38 38 38 39 38 37 37 37 37 36 36
15 15 16 16 17 18 18 19 19 20 20 20 21 21 21 21 21 20 19 19 18 18 18 19 20 21 22 23 24 25 25 26 27 28 29 29 30 31 31 32 33 33 34 34 34 35 35 36 36 36 36 37 37 38 38 38 38 38 38 38 38 38 39 38 38 37 37 37 37
15 16 16 17 18 18 19 19 19 20 20 20 21 21 21 21 20 20 19 19 18 19 19 20 21 22 23 24 24 25 26 27 27 28 29 30 30 31 32 32 33 33 34 34 35 35 35 36 36 36 37 37 37 38 38 38 39 39 39 39 39 38 38 39 39 38 38 38 38
16 16 17 18 18 19 19 19 19 20 20 20 21 21 21 20 20 19 19 19 19 20 20 21 22 23 24 24 25 26 26 27 28 29 29 30 31 32 32 33 33 34 34 34 35 35 35 36 36 37 37 37 38 38 38 38 39 39 39 39 39 39 39 39 39 39 39 39 38
17 17 18 18 19 19 19 19 19 19 20 20 20 20 20 20 20 20 20 20 20 21 22 22 23 23 24 25 26 26 27 28 28 29 30 31 31 32 33 33 34 34 34 35 35 35 35 36 36 37 37 38 38 38 38 39 39 39 39 39 39 39 39 39 40 40 40 40 40
17 18 18 19 19 19 19 19 19 19 20 20 20 20 20 20 20 20 20 21 21 22 22 23 24 24 25 25 26 27 27 28 29 30 31 31 32 33 33 34 34 34 35 35 35 35 35 36 36 37 37 38 38 39 39 39 39 39 39 39 39 40 40 40 40 40 40 40 40
18 19 19 19 19 19 19 19 19 19 20 20 21 21 21 20 21 21 21 22 22 23 23 23 24 25 25 26 26 27 28 29 29 30 31 32 33 33 34 34 35 35 35 35 36 36 36 36 36 37 38 38 39 39 39 39 40 40 39 39 40 40 40 40 40 40 40 40 39
19 19 20 20 20 20 19 19 19 19 20 20 21 21 21 21 21 22 22 22 23 23 24 24 24 25 26 26 27 27 28 29 30 31 32 33 33 34 34 35 35 35 36 36 36 36 36 37 37 37 38 38 39 39 39 40 40 40 40 40 40 40 40 40 40 40 40 40 39
19 20 20 20 20 19 19 19 19 19 20 21 21 21 21 21 22 22 22 23 23 24 24 24 25 25 26 27 27 28 29 30 31 32 32 33 34 34 35 35 35 36 36 36 36 37 37 37 38 38 38 39 39 39 39 40 40 40 40 40 40 40 40 40 40 40 39 39 38
19 20 20 20 20 19 19 18 19 19 20 21 21 21 22 22 22 23 23 23 23 24 24 25 25 26 26 27 28 29 30 30 32 32 33 34 34 35 35 36 36 36 36 36 37 37 37 38 38 38 39 39 39 40 40 40 40 40 40 40 40 40 40 40 40 40 39 38 37
20 20 21 20 20 19 18 18 19 19 20 21 21 21 22 22 22 23 23 23 24 24 24 25 26 26 27 28 28 29 30 31 32 33 34 34 35 35 36 36 36 36 36 37 37 37 38 38 38 39 39 39 40 40 40 40 40 40 40 41 41 41 41 41 41 40 39 37 36
20 20 20 20 19 18 18 18 19 19 20 20 21 21 22 22 22 23 23 23 24 24 25 25 26 27 28 29 29 30 31 32 33 33 34 35 35 35 36 36 37 37 37 37 37 38 38 38 39 39 40 40 40 40 40 40 41 41 41 41 41 41 41 41 40 39 38 36 35
20 20 20 19 18 18 18 18 19 19 20 21 21 21 22 22 22 23 23 24 24 25 25 26 27 28 28 29 30 31 32 33 33 34 35 35 36 36 36 36 37 37 37 37 38 38 38 39 39 39 40 40 40 41 41 41 41 41 42 42 42 42 41 41 40 38 37 36 35
20 20 19 18 18 18 18 18 19 19 20 21 21 22 22 22 23 23 23 24 24 25 26 27 27 28 29 30 31 32 33 34 34 35 35 35 36 36 37 37 37 37 38 38 38 38 39 39 39 40 40 40 40 40 40 41 41 41 41 42 41 41 41 40 39 38 37 36 34
20 19 19 18 18 18 18 19 19 20 20 21 21 22 22 22 23 23 24 24 25 26 27 28 28 29 30 31 32 33 34 35 35 36 36 36 36 37 37 37 38 38 38 38 38 38 38 39 39 39 40 39 39 40 40 40 40 40 41 41 41 40 40 39 38 37 36 35 34
19 19 18 17 18 18 18 19 20 20 21 21 22 22 22 23 23 23 24 25 26 26 27 28 29 30 31 32 33 34 34 35 36 36 37 37 37 37 37 38 38 38 38 38 38 38 38 38 38 39 39 38 39 39 39 39 39 39 39 39 39 38 38 37 36 35 34 34 33
18 18 17 17 18 18 19 20 20 21 21 22 22 22 22 23 23 24 25 26 26 27 28 29 30 31 32 33 34 34 35 35 36 37 37 38 38 38 38 38 38 38 38 38 38 38 38 38 38 38 38 37 37 37 38 38 38 38 37 37 37 36 35 35 35 34 33 32 32
18 17 17 17 18 19 20 20 21 21 21 22 22 22 23 23 24 25 26 27 28 28 29 30 31 32 33 34 34 35 36 36 37 37 37 38 38 38 38 38 38 38 38 39 39 39 39 39 39 39 38 36 36 36 36 37 37 36 36 35 34 34 33 33 33 33 33 32 33
17 17 17 18 19 20 20 21 21 21 21 21 22 22 23 24 25 26 27 28 28 29 30 31 32 33 34 35 35 36 36 37 37 37 38 38 38 38 38 38 39 39 39 39 39 40 40 40 40 39 38 36 35 34 34 35 35 35 34 33 32 32 32 31 31 32 32 33 33
18 18 18 19 19 20 21 21 21 21 21 21 22 23 24 24 26 27 28 29 30 31 32 32 33 34 35 35 36 36 37 37 37 38 38 38 38 38 38 39 39 39 39 40 40 40 40 40 40 39 38 36 34 33 33 33 33 33 32 31 31 31 31 31 31 31 32 32 33
18 18 19 19 20 20 20 20 20 21 21 22 22 23 24 25 27 28 29 30 31 32 32 33 34 35 35 36 36 37 37 37 38 38 38 38 39 39 39 39 39 40 40 40 41 41 41 40 40 39 38 36 34 32 32 32 32 32 31 31 31 31 31 31 31 31 32 32 33
19 19 20 20 20 20 20 20 20 20 21 22 23 24 25 26 27 29 30 31 32 32 33 34 35 35 36 36 37 37 38 38 38 38 38 38 39 39 39 40 40 40 41 41 41 41 41 40 40 38 37 35 33 32 31 31 31 31 31 31 30 30 30 30 31 31 31 32 33
19 19 20 19 19 19 19 20 20 21 22 23 24 25 26 27 28 29 31 32 33 33 34 35 35 36 37 37 37 38 38 38 38 38 38 39 39 40 40 40 41 41 41 41 41 41 40 40 39 38 36 34 32 31 31 31 31 30 30 30 30 30 30 30 30 31 32 32 33
19 19 19 19 19 19 19 20 21 22 23 24 25 26 27 28 29 30 31 32 33 34 35 36 36 37 37 38 38 38 38 38 38 38 39 39 39 40 40 41 41 41 41 41 41 40 40 39 38 37 35 33 32 31 31 31 30 29 29 29 29 29 29 29 30 31 32 32 33
18 18 18 18 18 19 20 21 22 23 24 25 26 27 28 29 30 31 32 33 34 35 35 36 36 37 37 38 38 38 39 39 38 38 39 39 40 40 41 41 41 41 41 41 41 40 39 38 37 35 34 32 31 30 30 29 29 29 29 29 29 29 28 29 29 30 31 32 32
18 17 17 18 18 19 21 22 23 24 25 26 27 28 29 30 31 32 33 34 35 35 36 36 36 37 37 37 38 38 38 39 39 39 39 39 40 41 41 42 42 42 41 41 40 39 38 37 36 34 32 31 30 29 29 29 29 29 29 29 29 29 28 29 29 30 31 32 32
17 17 17 18 19 20 22 23 24 25 26 27 28 29 30 31 32 33 34 35 35 36 36 37 37 37 38 38 38 38 38 38 39 39 39 40 40 41 42 42 42 42 42 41 40 38 37 36 34 32 31 29 29 29 29 28 28 28 28 28 29 29 29 29 29 30 31 31 31
16 17 18 19 20 22 23 24 26 27 28 29 30 31 32 32 33 33 34 35 36 37 37 37 37 38 38 38 38 38 38 38 39 40 40 40 40 41 42 43 43 42 41 40 39 37 36 35 33 31 29 28 29 29 29 28 28 28 28 29 29 29 29 29 29 30 30 30 29
17 18 19 21 22 23 24 25 27 28 29 30 31 31 32 33 34 34 35 35 36 37 38 38 38 38 38 38 39 39 39 39 39 39 40 40 40 41 41 42 42 42 40 39 38 36 35 33 31 29 28 28 29 29 29 28 28 28 29 29 29 29 29 29 29 30 30 30 28
17 19 20 22 23 24 25 26 27 29 30 31 32 32 33 34 34 35 35 35 36 37 37 38 38 38 38 39 39 40 40 39 39 39 40 40 41 41 41 41 42 41 39 38 36 35 34 32 30 28 27 27 28 29 29 29 28 28 29 29 29 29 29 29 30 31 31 29 27
18 20 21 23 24 25 26 27 28 29 30 31 32 33 33 34 34 35 35 36 36 36 37 38 38 38 38 39 39 40 40 40 40 39 40 40 41 41 41 40 40 40 38 36 36 35 33 30 28 27 27 27 27 28 29 29 29 28 29 29 29 30 30 31 31 32 31 29 29
20 21 22 23 25 26 27 28 29 30 31 31 32 33 34 34 34 35 35 36 36 36 37 38 38 38 38 39 39 40 41 41 40 40 40 40 41 41 40 40 39 39 37 35 35 33 32 29 27 26 26 26 27 27 28 28 28 29 29 29 30 30 32 33 34 33 30 29 31
Wind_Direction
17 15 13 11 8 6 4 1 358 354 350 345 343 342 342 343 343 343 342 342 342 341 341 340 340 340 340 340 341 342 344 346 347 348 349 350 350 350 350 350 350 349 349 348 348 347 347 346 346 345 345 344 344 343 343 342 341 340 339 339 338 337 336 335 334 333 332 331 329
15 13 11 10 8 6 3 0 357 353 349 346 344 344 344 344 343 342 341 341 340 340 339 339 338 338 339 339 340 342 344 346 347 348 349 349 349 349 349 349 349 349 348 348 347 347 346 346 345 344 344 343 343 342 341 341 340 339 338 338 337 336 335 335 334 333 332 331 330
14 13 12 10 8 6 3 0 357 353 349 347 346 345 345 343 342 341 340 339 338 338 337 337 337 337 337 339 340 342 344 346 347 348 348 348 349 349 349 348 348 348 347 347 347 346 345 345 344 344 343 342 342 341 340 340 339 338 337 337 336 335 335 334 333 333 332 331 330
15 14 12 10 8 6 4 1 358 354 351 349 347 345 344 342 340 338 338 337 336 336 335 335 335 336 337 339 341 343 345 346 347 347 348 348 348 348 348 348 348 347 347 347 346 345 345 344 344 343 342 342 341 341 340 339 338 337 336 336 335 335 334 334 333 333 333 332 332
16 14 12 10 9 7 5 2 359 355 352 349 346 344 341 339 337 336 335 334 334 334 334 334 335 336 337 339 341 343 344 346 346 347 347 347 348 348 348 347 347 347 346 346 345 345 344 344 343 342 342 341 341 340 340 339 338 337 336 335 335 335 334 334 334 334 334 333 333
16 14 12 10 9 7 5 2 359 356 352 348 345 341 338 336 334 333 333 332 332 332 333 334 335 336 338 340 342 344 344 345 346 347 347 347 347 347 347 347 347 346 346 345 345 344 344 343 342 342 341 341 340 340 339 338 337 336 335 335 335 335 335 335 334 335 334 334 333
16 14 12 11 9 7 4 1 359 355 351 347 342 339 336 334 333 332 331 331 332 332 333 334 335 337 339 341 342 344 345 345 346 346 347 347 347 346 347 346 346 345 345 345 344 344 343 343 342 341 341 340 339 339 338 337 336 336 335 335 334 335 335 335 335 335 334 333 333
15 13 12 11 9 6 3 0 357 353 349 344 341 337 335 334 333 332 332 332 332 333 334 335 336 338 340 341 343 344 345 345 346 346 346 346 346 346 345 345 345 345 344 344 343 343 342 342 341 340 340 339 338 337 337 337 336 335 335 334 334 334 334 335 334 334 333 332 331
14 12 11 9 7 4 1 358 355 351 346 342 339 337 335 334 333 333 333 332 333 333 334 335 337 339 340 342 343 344 345 345 345 345 345 345 345 345 344 344 344 344 343 343 342 342 341 340 340 339 339 338 337 336 336 335 335 334 333 333 333 333 333 333 333 332 331 330 330
12 10 9 7 4 2 359 356 352 349 345 341 339 337 336 335 335 334 334 333 334 334 335 336 337 339 341 342 343 344 344 344 344 344 344 344 344 344 343 343 343 342 342 341 341 340 340 339 339 338 337 336 336 335 334 334 334 333 332 332 332 332 332 331 331 331 330 329 329
10 8 7 4 1 359 356 353 349 346 343 341 339 338 337 336 336 335 335 335 334 334 335 336 338 340 341 342 343 343 343 343 343 343 343 343 343 342 342 342 342 341 341 340 340 339 338 338 337 336 335 335 334 334 333 333 332 332 331 331 331 331 331 330 330 330 329 328 328
7 5 3 1 358 355 352 350 347 344 342 340 339 338 338 337 337 336 336 335 334 334 336 338 339 340 341 342 342 342 342 342 342 342 342 342 341 341 341 340 340 340 339 339 338 338 337 336 335 335 334 333 333 333 332 331 331 331 331 331 331 331 330 330 330 329 329 328 327
3 1 359 356 353 351 348 346 344 342 340 340 340 339 338 338 337 337 336 335 335 336 337 339 340 340 341 341 341 341 341 341 341 341 340 340 340 340 339 339 339 338 338 337 337 337 336 335 334 334 333 332 332 332 331 331 330 330 330 331 331 330 330 329 329 328 328 327 326
359 356 354 351 348 346 344 342 341 339 339 340 340 340 339 338 337 337 336 336 336 337 338 339 339 340 340 340 340 340 340 340 340 339 339 339 339 338 338 338 337 337 336 336 336 335 335 334 333 333 332 331 331 330 330 330 330 330 330 330 330 330 329 328 328 327 327 326 325
354 351 348 346 344 342 341 339 338 338 339 340 341 341 339 338 337 337 337 337 337 338 338 339 339 339 339 339 339 339 339 339 338 338 338 338 337 337 337 336 336 335 335 335 334 334 333 333 332 332 331 330 330 329 329 329 329 329 329 329 329 328 327 327 326 326 325 324 323
350 346 344 341 340 339 338 337 337 338 340 341 341 340 339 338 337 337 337 337 338 338 338 338 338 338 338 338 338 338 338 337 337 337 337 336 336 336 335 335 334 334 334 333 333 333 332 332 331 331 330 329 329 329 329 329 329 328 328 327 327 326 326 325 324 324 323 322 321
346 343 340 338 337 336 336 335 337 339 340 341 341 340 338 337 337 337 337 337 337 337 337 337 337 337 337 337 337 337 337 337 336 336 336 335 335 334 334 333 333 333 333 332 332 332 331 331 330 330 329 329 328 328 328 328 327 327 326 326 325 324 324 323 323 322 321 320 319
343 341 338 337 335 334 334 335 337 339 340 341 340 339 338 337 337 337 336 337 337 336 337 336 337 337 337 337 336 336 336 336 335 335 335 334 334 333 333 332 332 332 332 332 331 331 331 330 329 329 328 328 328 328 327 327 326 326 325 325 324 323 323 322 321 320 319 319 318
341 339 337 336 334 333 333 335 337 339 340 339 338 337 336 336 336 336 336 336 336 336 336 336 336 336 336 336 336 336 335 335 334 334 333 333 332 332 331 331 331 331 331 331 331 330 330 329 329 329 328 328 328 327 327 326 326 325 324 324 323 323 322 321 320 319 318 317 317
341 339 337 335 333 333 333 335 337 338 338 338 337 336 335 335 335 335 335 335 335 336 336 336 336 336 336 335 335 335 334 334 333 333 332 332 331 331 331 330 330 330 330 330 330 330 329 329 329 328 328 328 327 327 326 326 325 325 324 324 323 322 322 321 320 319 318 317 316
340 338 337 334 333 332 333 335 336 337 336 336 335 334 334 334 334 334 335 335 335 335 335 335 335 335 335 335 334 334 333 333 332 332 331 331 330 330 330 330 330 330 330 330 330 329 329 329 329 329 329 328 327 327 326 326 325 324 324 323 322 322 321 320 319 318 317 316 316
339 338 336 334 332 332 333 334 335 335 334 333 333 333 333 333 334 334 334 335 335 335 335 335 335 335 334 334 333 332 332 331 331 330 330 330 330 330 329 329 329 329 329 330 330 329 329 329 329 329 329 328 327 327 326 325 325 324 323 322 321 320 320 319 317 316 316 315 315
338 337 335 333 331 331 332 332 333 332 332 332 332 332 332 333 333 334 334 335 335 335 334 334 334 334 333 332 332 331 330 330 329 329 329 329 329 329 329 329 329 329 329 330 330 330 330 330 330 329 329 328 327 326 325 325 324 323 322 321 320 319 318 317 316 316 315 315 316
337 335 333 331 330 330 330 331 331 331 330 331 331 332 332 333 333 334 334 335 334 334 334 333 333 332 332 331 331 330 329 328 328 328 328 328 328 328 328 328 329 329 329 329 330 330 330 330 330 329 328 328 327 325 324 323 322 321 320 319 318 317 317 316 315 315 315 316 316
335 333 331 329 328 328 329 329 330 330 330 330 331 332 332 333 333 334 334 334 334 333 333 332 332 331 330 330 329 329 328 327 327 327 327 327 328 328 328 328 328 329 329 329 330 330 330 329 329 329 328 327 326 325 323 322 321 320 319 318 317 316 315 314 315 315 315 316 316
333 331 329 328 327 327 328 328 329 329 330 330 331 332 332 333 334 334 334 334 333 333 332 331 330 330 329 328 328 327 327 327 327 327 327 327 328 328 328 328 328 329 329 329 329 329 329 329 329 329 328 327 325 323 322 320 319 318 317 316 315 314 313 313 314 315 315 316 316
331 329 327 326 326 327 327 328 329 329 330 330 331 332 333 333 334 334 333 333 332 332 331 330 329 328 328 327 327 326 326 327 327 327 327 328 328 328 328 328 328 329 329 329 329 329 329 329 329 329 329 328 325 322 320 319 318 317 316 314 313 312 312 312 313 314 315 315 316
330 327 326 326 326 327 327 328 329 329 330 331 332 332 333 334 334 333 333 332 331 330 329 328 328 327 327 326 326 326 326 327 327 327 327 327 327 327 328 328 328 328 329 329 329 329 329 330 330 330 329 328 325 322 319 318 316 315 314 313 312 312 312 312 313 314 315 315 316
327 326 325 326 326 327 328 329 330 330 331 332 332 333 333 334 333 333 332 331 330 329 329 328 327 327 326 326 326 326 326 327 327 327 327 327 327 327 327 328 328 328 329 329 329 330 330 330 330 330 329 328 325 322 319 316 315 314 313 312 311 312 312 313 313 314 315 315 316
326 325 325 326 327 328 329 330 331 332 332 333 333 334 334 333 333 332 331 330 329 328 328 327 326 326 326 326 326 326 326 327 327 327 327 327 327 327 327 328 328 329 329 330 330 331 331 330 330 330 329 328 326 322 318 316 314 313 312 312 312 312 312 313 313 314 315 315 316
325 325 326 327 329 330 331 332 332 333 333 334 334 334 333 333 332 331 330 329 328 327 326 326 326 326 326 325 326 326 326 326 327 327 327 327 327 327 328 328 329 329 330 331 331 331 331 331 330 330 329 328 326 322 319 316 315 313 312 312 312 312 312 313 314 314 315 315 316
325 326 328 329 330 331 332 333 334 334 334 334 334 334 333 332 331 330 328 327 326 326 326 325 325 325 325 326 326 326 326 326 327 327 327 328 328 328 328 328 329 330 331 331 331 331 331 331 330 330 330 329 326 323 320 317 315 313 312 311 312 312 313 313 314 314 315 316 317
327 329 330 331 332 333 334 335 335 335 335 334 334 333 332 331 329 328 327 326 326 325 326 326 326 326 326 326 326 326 326 326 327 327 327 328 328 328 328 329 330 331 331 332 331 331 331 331 331 331 331 329 326 323 320 318 315 313 312 312 312 312 313 313 313 314 315 316 317
330 331 333 333 334 335 336 336 335 335 335 334 333 332 331 330 329 328 327 326 326 325 326 326 326 326 326 326 326 326 326 327 327 328 328 328 328 329 329 330 330 331 331 332 331 331 332 331 332 332 332 330 326 322 319 317 315 314 313 312 312 312 312 312 312 313 315 316 316
333 334 335 336 336 336 337 336 336 335 334 333 332 331 330 329 328 327 327 326 326 325 326 326 326 326 326 326 326 326 326 327 327 328 329 329 330 329 329 330 330 331 331 332 332 332 332 332 333 334 333 330 326 321 319 317 316 315 314 313 312 312 312 312 312 313 314 315 314
335 336 336 337 338 338 338 337 336 335 334 332 331 330 329 329 328 327 327 326 326 326 326 326 326 327 327 327 327 327 327 328 328 329 330 330 331 330 330 330 330 331 332 332 332 332 333 334 336 336 334 329 324 321 320 318 316 315 314 313 313 312 312 312 312 312 313 313 311
337 338 338 339 339 339 338 337 336 334 333 332 331 330 329 329 328 328 327 327 327 327 327 327 327 328 328 327 327 327 328 329 329 330 330 331 331 331 331 330 330 331 332 333 333 333 335 336 338 337 333 327 323 322 320 318 316 315 314 314 313 313 312 311 311 311 310 310 309
339 339 340 340 340 339 338 336 335 333 332 331 330 330 329 329 329 329 328 329 329 328 328 328 328 328 328 328 328 328 328 329 330 331 331 331 331 331 331 331 331 332 333 333 334 335 337 339 339 336 330 325 324 322 320 318 317 316 315 314 313 313 312 311 310 310 309 308 309
341 341 341 341 340 338 337 335 334 332 331 331 330 330 329 329 329 329 329 329 329 329 328 328 328 329 329 328 328 328 328 329 330 331 331 331 331 331 331 331 331 332 333 334 335 337 339 340 338 333 328 326 325 323 321 319 317 316 315 314 314 313 312 311 311 310 308 307 310
342 342 341 340 339 337 335 334 333 332 331 330 330 330 330 330 329 329 329 329 329 329 328 328 328 329 329 329 329 328 328 329 330 331 331 331 331 331 332 332 332 333 334 336 337 339 340 340 335 330 328 327 325 323 321 319 317 316 315 314 313 313 312 312 311 309 308 308 315
342 341 340 339 337 335 334 332 331 330 330 330 330 330 330 329 329 329 329 329 329 329 329 328 328 329 329 329 329 329 328 329 329 330 330 331 331 332 332 333 333 334 336 337 339 340 340 337 332 328 327 326 325 323 322 320 318 316 315 314 313 313 312 312 311 309 309 313 320
Height
1498 1497 1497 1496 1496 1496 1495 1495 1494 1494 1494 1493 1492 1491 1490 1490 1489 1488 1487 1486 1485 1484 1482 1481 1480 1479 1478 1477 1476 1475 1474 1473 1472 1471 1470 1469 1468 1467 1466 1465 1463 1462 1461 1459 1458 1457 1455 1454 1452 1451 1450 1448 1447 1445 1444 1442 1441 1439 1437 1436 1435 1433 1432 1430 1429 1427 1426 1425 1423
1498 1497 1497 1497 1496 1496 1495 1495 1494 1494 1493 1492 1491 1491 1490 1489 1488 1487 1486 1485 1484 1483 1482 1481 1480 1479 1477 1476 1476 1475 1473 1472 1471 1471 1470 1468 1467 1466 1465 1464 1462 1461 1460 1458 1457 1456 1454 1453 1451 1450 1448 1447 1445 1444 1442 1441 1439 1438 1436 1435 1433 1432 1430 1429 1427 1426 1424 1423 1421
1498 1497 1497 1496 1496 1495 1495 1494 1494 1493 1492 1492 1491 1490 1489 1488 1487 1486 1485 1484 1483 1482 1481 1480 1479 1478 1477 1476 1475 1474 1473 1471 1471 1470 1469 1467 1466 1465 1464 1463 1461 1460 1459 1457 1456 1454 1453 1451 1450 1448 1447 1445 1444 1442 1441 1439 1438 1436 1435 1433 1431 1430 1428 1427 1426 1424 1423 1421 1420
1497 1497 1496 1496 1496 1495 1494 1494 1493 1492 1492 1491 1490 1489 1489 1488 1487 1486 1485 1484 1482 1481 1480 1479 1478 1477 1476 1475 1474 1473 1472 1471 1470 1469 1468 1466 1465 1464 1463 1462 1460 1459 1458 1456 1455 1453 1452 1450 1449 1447 1446 1444 1442 1441 1439 1437 1436 1434 1433 1431 1430 1428 1427 1425 1424 1422 1421 1419 1418
1497 1496 1496 1496 1495 1494 1494 1493 1492 1492 1491 1491 1490 1489 1488 1487 1486 1485 1484 1483 1482 1481 1480 1479 1478 1476 1476 1474 1473 1472 1471 1470 1469 1468 1466 1465 1464 1463 1462 1461 1459 1458 1456 1455 1453 1452 1450 1449 1447 1445 1444 1442 1441 1439 1437 1436 1434 1433 1431 1430 1428 1427 1425 1423 1422 1421 1419 1417 1416
1496 1496 1495 1495 1494 1493 1493 1492 1492 1491 1491 1490 1489 1488 1487 1486 1486 1484 1483 1482 1481 1480 1479 1478 1477 1476 1475 1474 1472 1471 1470 1469 1468 1466 1465 1464 1463 1462 1461 1459 1458 1456 1455 1453 1452 1450 1448 1447 1445 1443 1442 1441 1439 1437 1436 1434 1433 1431 1429 1428 1426 1425 1423 1422 1420 1418 1417 1416 1414
1496 1495 1495 1494 1493 1493 1492 1492 1491 1491 1490 1489 1488 1487 1486 1486 1485 1484 1482 1481 1480 1479 1478 1477 1476 1475 1474 1472 1471 1470 1469 1468 1466 1466 1464 1463 1461 1460 1459 1458 1456 1455 1453 1452 1450 1448 1447 1445 1444 1442 1440 1439 1437 1436 1434 1433 1431 1429 1427 1426 1424 1423 1421 1420 1418 1416 1415 1414 1412
1495 1495 1494 1493 1493 1492 1492 1491 1491 1490 1489 1488 1488 1487 1486 1485 1484 1482 1481 1480 1479 1478 1477 1476 1475 1474 1473 1471 1470 1469 1468 1467 1465 1464 1463 1461 1460 1459 1457 1456 1455 1453 1451 1450 1448 1447 1445 1444 1442 1440 1439 1437 1436 1434 1432 1431 1429 1427 1426 1424 1423 1421 1420 1418 1416 1415 1413 1412 1411
1494 1494 1493 1493 1492 1491 1491 1491 1490 1489 1489 1488 1487 1486 1485 1484 1483 1481 1481 1479 1478 1477 1476 1475 1474 1473 1472 1471 1469 1468 1466 1465 1464 1463 1461 1460 1459 1457 1456 1455 1453 1451 1450 1449 1447 1446 1444 1442 1441 1439 1437 1436 1434 1432 1431 1429 1428 1426 1424 1422 1421 1420 1418 1417 1415 1414 1412 1410 1409
1494 1493 1492 1492 1491 1491 1490 1490 1489 1489 1488 1487 1486 1485 1484 1482 1481 1481 1479 1478 1477 1476 1475 1474 1473 1472 1471 1469 1468 1466 1465 1464 1463 1461 1460 1459 1457 1456 1454 1453 1451 1450 1448 1447 1446 1444 1442 1441 1439 1438 1436 1434 1433 1431 1429 1427 1426 1424 1423 1421 1419 1418 1416 1415 1414 1412 1410 1408 1407
1493 1492 1492 1491 1491 1490 1490 1489 1488 1487 1487 1486 1485 1484 1482 1481 1480 1479 1478 1477 1476 1475 1474 1473 1472 1471 1469 1468 1467 1466 1464 1463 1461 1460 1459 1457 1456 1455 1453 1451 1450 1449 1447 1446 1444 1442 1441 1439 1438 1436 1434 1433 1431 1429 1428 1426 1424 1423 1421 1419 1418 1416 1414 1413 1411 1410 1408 1406 1405
1492 1491 1491 1491 1490 1489 1489 1488 1487 1486 1486 1485 1484 1482 1481 1480 1479 1478 1477 1476 1476 1474 1473 1472 1471 1469 1468 1467 1466 1464 1463 1461 1460 1459 1457 1456 1455 1453 1451 1450 1449 1447 1446 1444 1443 1441 1439 1437 1436 1434 1433 1431 1429 1428 1426 1424 1422 1421 1419 1417 1416 1414 1412 1411 1409 1408 1406 1404 1403
1491 1491 1490 1490 1489 1489 1488 1487 1486 1486 1485 1484 1483 1481 1480 1479 1478 1477 1476 1476 1474 1473 1472 1471 1470 1468 1467 1466 1464 1463 1462 1460 1459 1457 1456 1455 1453 1452 1450 1449 1447 1446 1444 1443 1441 1440 1438 1436 1434 1433 1431 1429 1428 1426 1424 1422 1421 1419 1417 1415 1414 1412 1411 1409 1407 1406 1404 1402 1401
1491 1490 1490 1489 1489 1488 1487 1486 1486 1485 1484 1482 1481 1481 1479 1478 1477 1476 1475 1474 1473 1472 1471 1470 1468 1467 1466 1464 1463 1462 1461 1459 1458 1456 1455 1453 1452 1451 1449 1447 1446 1445 1443 1441 1440 1438 1436 1435 1433 1431 1429 1427 1426 1424 1422 1421 1419 1417 1415 1413 1412 1410 1408 1407 1405 1403 1402 1400 1398
1490 1490 1489 1488 1488 1487 1486 1486 1485 1484 1483 1481 1480 1479 1478 1477 1476 1475 1474 1473 1472 1471 1470 1468 1467 1466 1465 1463 1462 1461 1459 1458 1456 1455 1453 1452 1451 1449 1448 1446 1445 1443 1441 1440 1438 1437 1435 1433 1431 1429 1427 1426 1424 1422 1421 1419 1417 1415 1414 1412 1410 1408 1407 1405 1403 1401 1400 1398 1396
1489 1489 1488 1487 1487 1486 1485 1485 1484 1483 1481 1480 1479 1478 1477 1476 1475 1474 1473 1472 1471 1470 1468 1467 1466 1465 1464 1462 1461 1460 1458 1456 1455 1454 1452 1451 1449 1447 1446 1445 1443 1441 1440 1438 1436 1435 1433 1432 1430 1428 1426 1424 1422 1420 1419 1417 1415 1414 1412 1410 1409 1407 1405 1403 1401 1400 1398 1396 1394
1489 1488 1487 1486 1486 1485 1484 1483 1482 1481 1480 1479 1478 1477 1476 1475 1474 1472 1471 1471 1469 1468 1467 1466 1465 1464 1462 1461 1460 1458 1457 1455 1453 1452 1451 1449 1447 1446 1444 1443 1441 1440 1438 1436 1435 1433 1431 1430 1428 1426 1424 1422 1421 1419 1417 1415 1413 1412 1410 1408 1407 1405 1403 1401 1400 1398 1396 1394 1392
1488 1487 1486 1486 1485 1484 1483 1482 1481 1480 1479 1478 1477 1476 1475 1474 1472 1471 1470 1469 1468 1467 1466 1465 1464 1462 1461 1460 1458 1456 1455 1454 1452 1451 1449 1448 1446 1445 1443 1441 1440 1438 1437 1435 1433 1431 1430 1428 1426 1424 1422 1421 1419 1417 1415 1413 1411 1410 1408 1406 1405 1403 1401 1399 1397 1396 1394 1392 1390
1487 1486 1486 1485 1484 1483 1482 1481 1480 1479 1478 1477 1476 1475 1473 1472 1471 1470 1469 1468 1467 1466 1465 1463 1462 1461 1460 1458 1457 1455 1454 1452 1451 1449 1448 1446 1445 1443 1441 1440 1438 1437 1435 1433 1431 1430 1428 1426 1424 1422 1421 1419 1417 1415 1413 1411 1409 1407 1406 1404 1402 1400 1398 1396 1395 1393 1391 1390 1388
1486 1486 1485 1484 1483 1482 1481 1480 1479 1478 1476 1476 1474 1473 1472 1471 1470 1469 1468 1467 1466 1465 1463 1462 1461 1459 1458 1457 1455 1454 1452 1451 1449 1448 1446 1445 1443 1441 1440 1438 1436 1435 1433 1432 1430 1428 1426 1424 1422 1420 1418 1416 1415 1412 1411 1409 1407 1405 1403 1401 1399 1397 1396 1394 1392 1391 1389 1387 1386
1485 1484 1484 1483 1482 1481 1480 1479 1477 1476 1475 1474 1473 1472 1471 1470 1469 1468 1467 1466 1464 1463 1462 1461 1459 1458 1456 1455 1454 1452 1451 1449 1448 1446 1445 1443 1441 1440 1438 1436 1435 1433 1431 1430 1428 1426 1424 1422 1420 1418 1416 1414 1412 1410 1408 1406 1404 1402 1401 1399 1397 1395 1393 1391 1390 1388 1386 1385 1383
1484 1483 1482 1482 1481 1480 1479 1477 1476 1475 1474 1473 1472 1471 1470 1469 1468 1467 1466 1464 1463 1461 1460 1459 1458 1456 1455 1453 1452 1451 1449 1448 1446 1445 1443 1442 1440 1438 1437 1435 1433 1431 1430 1428 1426 1424 1422 1420 1418 1416 1414 1412 1410 1408 1406 1404 1401 1400 1397 1396 1394 1392 1391 1389 1387 1386 1384 1383 1381
1483 1482 1481 1481 1480 1479 1477 1476 1475 1474 1473 1472 1471 1470 1469 1468 1466 1465 1464 1463 1461 1460 1459 1457 1456 1455 1453 1452 1451 1449 1448 1446 1445 1443 1442 1441 1439 1437 1435 1433 1431 1430 1428 1426 1424 1422 1420 1418 1416 1414 1412 1410 1408 1406 1403 1401 1399 1397 1395 1393 1391 1390 1388 1386 1385 1383 1382 1380 1379
1481 1481 1480 1479 1478 1477 1476 1475 1474 1473 1472 1471 1470 1469 1467 1466 1465 1464 1463 1461 1460 1459 1457 1456 1455 1453 1452 1451 1449 1448 1446 1445 1443 1441 1440 1439 1437 1436 1433 1431 1430 1428 1426 1425 1423 1421 1419 1416 1414 1412 1410 1408 1406 1403 1401 1399 1397 1395 1393 1391 1389 1387 1385 1384 1382 1381 1380 1378 1376
1480 1480 1479 1478 1477 1476 1475 1474 1473 1472 1471 1469 1468 1467 1466 1465 1464 1462 1461 1460 1459 1457 1456 1455 1453 1452 1451 1449 1448 1446 1445 1443 1441 1440 1438 1436 1435 1434 1432 1430 1428 1426 1425 1423 1421 1419 1418 1416 1413 1411 1408 1406 1404 1401 1399 1397 1396 1393 1391 1389 1387 1385 1383 1381 1380 1379 1377 1376 1374
1479 1478 1477 1477 1476 1475 1474 1473 1472 1471 1469 1468 1467 1466 1465 1463 1462 1461 1460 1458 1457 1456 1454 1453 1451 1450 1449 1447 1446 1445 1443 1441 1440 1438 1436 1435 1433 1431 1430 1428 1426 1425 1423 1421 1419 1417 1416 1414 1412 1410 1407 1405 1402 1400 1397 1395 1393 1391 1389 1387 1385 1383 1381 1379 1377 1376 1375 1374 1372
1478 1477 1476 1476 1475 1474 1472 1471 1470 1469 1468 1467 1466 1464 1463 1462 1461 1459 1458 1457 1456 1454 1453 1451 1450 1449 1447 1446 1444 1443 1441 1440 1438 1436 1435 1433 1431 1429 1428 1426 1424 1422 1421 1419 1417 1415 1413 1411 1409 1407 1405 1403 1401 1398 1396 1393 1391 1389 1387 1386 1384 1382 1380 1378 1376 1374 1373 1371 1370
1477 1476 1475 1474 1473 1472 1471 1470 1469 1468 1466 1465 1464 1463 1462 1460 1459 1458 1456 1455 1454 1452 1451 1450 1448 1447 1446 1444 1442 1441 1440 1438 1436 1435 1433 1431 1430 1428 1426 1424 1422 1421 1419 1417 1415 1413 1411 1409 1407 1405 1403 1401 1399 1396 1394 1391 1389 1387 1385 1384 1382 1380 1378 1376 1375 1373 1371 1369 1368
1476 1475 1474 1473 1472 1471 1470 1469 1467 1466 1465 1464 1463 1461 1460 1459 1457 1456 1455 1453 1452 1451 1450 1448 1446 1445 1444 1442 1441 1439 1437 1436 1435 1433 1431 1429 1427 1426 1424 1422 1420 1418 1416 1415 1412 1410 1408 1406 1405 1403 1401 1399 1397 1394 1392 1390 1388 1386 1384 1382 1380 1378 1376 1375 1373 1371 1370 1368 1366
1475 1474 1473 1472 1471 1470 1468 1467 1466 1465 1464 1462 1461 1460 1459 1457 1456 1455 1453 1452 1451 1449 1448 1446 1445 1443 1442 1441 1439 1437 1436 1434 1433 1431 1429 1427 1426 1424 1422 1420 1418 1416 1414 1412 1410 1408 1406 1404 1402 1400 1398 1396 1395 1392 1390 1388 1386 1384 1382 1380 1378 1376 1375 1373 1371 1370 1368 1366 1365
1473 1472 1471 1470 1469 1468 1467 1466 1465 1463 1462 1461 1460 1458 1457 1456 1454 1453 1451 1450 1449 1448 1446 1445 1443 1442 1440 1439 1437 1436 1434 1432 1431 1429 1427 1425 1423 1421 1420 1418 1416 1414 1412 1410 1408 1406 1404 1402 1400 1398 1396 1394 1392 1390 1388 1386 1384 1382 1380 1378 1376 1375 1373 1371 1370 1368 1366 1365 1363
1472 1471 1470 1469 1468 1467 1466 1465 1463 1462 1461 1460 1458 1457 1456 1454 1453 1452 1450 1449 1447 1446 1444 1443 1441 1440 1438 1436 1435 1433 1432 1430 1429 1427 1425 1423 1421 1419 1417 1415 1413 1411 1410 1407 1406 1403 1401 1400 1397 1396 1394 1392 1390 1388 1386 1384 1382 1380 1378 1376 1375 1373 1371 1370 1368 1367 1365 1363 1361
1471 1470 1468 1467 1466 1465 1464 1463 1462 1461 1460 1458 1457 1456 1454 1453 1451 1450 1449 1447 1446 1444 1442 1441 1439 1438 1436 1434 1432 1431 1430 1428 1427 1425 1423 1421 1419 1417 1415 1413 1411 1409 1407 1405 1403 1401 1399 1397 1396 1393 1391 1390 1387 1386 1383 1381 1380 1378 1376 1374 1373 1371 1370 1368 1367 1365 1363 1361 1360
1469 1468 1467 1466 1465 1464 1463 1462 1461 1459 1458 1457 1456 1454 1453 1451 1450 1448 1447 1446 1444 1442 1441 1439 1438 1436 1434 1433 1431 1429 1427 1426 1425 1423 1421 1419 1417 1415 1413 1411 1409 1407 1406 1403 1401 1399 1397 1395 1393 1391 1389 1387 1385 1383 1381 1380 1378 1376 1374 1373 1371 1370 1368 1366 1365 1363 1361 1360 1358
1468 1467 1466 1465 1464 1463 1461 1460 1459 1458 1456 1455 1454 1453 1451 1450 1449 1447 1445 1444 1442 1441 1439 1437 1436 1434 1433 1431 1430 1428 1426 1424 1422 1421 1419 1417 1415 1412 1410 1408 1407 1405 1403 1401 1399 1397 1395 1393 1391 1389 1387 1385 1383 1381 1380 1378 1376 1374 1373 1371 1369 1368 1366 1365 1363 1361 1359 1358 1356
1466 1466 1465 1464 1462 1461 1460 1459 1457 1456 1455 1454 1452 1451 1450 1448 1447 1446 1444 1442 1440 1438 1437 1436 1434 1432 1431 1429 1427 1426 1424 1422 1420 1418 1416 1415 1413 1410 1408 1406 1404 1403 1401 1399 1397 1395 1393 1391 1389 1387 1385 1383 1382 1380 1378 1376 1375 1373 1371 1369 1367 1366 1364 1362 1361 1359 1357 1356 1354
1465 1464 1463 1462 1461 1460 1458 1457 1456 1454 1453 1452 1451 1449 1448 1446 1445 1443 1442 1440 1438 1436 1435 1433 1432 1430 1429 1427 1425 1423 1422 1421 1419 1416 1414 1412 1411 1408 1406 1403 1402 1400 1399 1397 1395 1393 1391 1389 1387 1385 1384 1382 1380 1379 1377 1375 1373 1371 1369 1367 1366 1364 1362 1361 1359 1357 1355 1354 1352
1464 1463 1462 1461 1459 1458 1457 1456 1454 1453 1451 1450 1449 1448 1446 1445 1443 1441 1440 1438 1436 1434 1432 1431 1430 1428 1426 1425 1423 1421 1420 1419 1417 1415 1412 1410 1409 1406 1404 1401 1399 1398 1396 1395 1393 1391 1389 1387 1385 1384 1383 1381 1379 1377 1375 1373 1371 1370 1368 1366 1364 1362 1360 1359 1357 1355 1353 1352 1351
1463 1461 1461 1459 1458 1456 1455 1454 1453 1451 1450 1449 1447 1446 1445 1443 1441 1440 1438 1437 1435 1433 1431 1429 1428 1426 1425 1423 1421 1419 1417 1416 1415 1413 1411 1409 1406 1405 1403 1400 1398 1396 1394 1393 1391 1389 1387 1385 1384 1382 1381 1380 1378 1376 1374 1372 1370 1368 1366 1364 1362 1360 1358 1357 1355 1353 1351 1350 1348
1461 1460 1459 1458 1456 1455 1454 1453 1451 1450 1449 1447 1446 1445 1443 1441 1440 1438 1437 1435 1434 1432 1430 1428 1426 1425 1423 1421 1419 1417 1415 1414 1413 1411 1409 1407 1405 1403 1401 1399 1396 1394 1392 1391 1389 1386 1385 1383 1382 1381 1381 1379 1377 1375 1373 1371 1369 1367 1365 1363 1361 1359 1357 1355 1353 1351 1349 1348 1346
1460 1459 1458 1456 1455 1454 1453 1451 1450 1449 1448 1446 1445 1443 1441 1440 1438 1437 1435 1434 1432 1430 1428 1426 1425 1423 1421 1420 1417 1415 1413 1411 1410 1409 1407 1405 1403 1401 1399 1397 1394 1391 1390 1388 1386 1385 1383 1382 1381 1380 1379 1378 1376 1374 1372 1370 1368 1366 1363 1361 1360 1358 1355 1353 1351 1349 1348 1346 1344